| time (UTC) | temp C | wind direction | speed KPH | gust KPH | rain 1hr cm | rain 24hr cm | rain mn cm | humidity % | barometer mb |
| 20260902162022 | 33 | 199 | 1.6 | 9.7 | 0.00 | 0.00 | 0.00 | 53 | 1017.3 |
| 20260902161023 | 33 | 191 | 3.2 | 12.9 | 0.00 | 0.00 | 0.00 | 55 | 1017.4 |
| 20260902160017 | 33 | 218 | 1.6 | 11.3 | 0.00 | 0.00 | 0.00 | 55 | 1017.5 |
| 20260902155017 | 33 | 187 | 1.6 | 11.3 | 0.00 | 0.00 | 0.00 | 56 | 1017.5 |
| 20260902154022 | 32 | 199 | 3.2 | 9.7 | 0.00 | 0.00 | 0.00 | 57 | 1017.4 |
| 20260902153022 | 32 | 199 | 1.6 | 9.7 | 0.00 | 0.00 | 0.00 | 60 | 1017.5 |
| 20260902152022 | 32 | 189 | 3.2 | 8.0 | 0.00 | 0.00 | 0.00 | 60 | 1017.6 |
| 20260902151022 | 31 | 200 | 4.8 | 9.7 | 0.00 | 0.00 | 0.00 | 61 | 1017.7 |
| 20260902150022 | 31 | 203 | 3.2 | 8.0 | 0.00 | 0.00 | 0.00 | 64 | 1017.6 |
| 20260902145017 | 31 | 205 | 1.6 | 6.4 | 0.00 | 0.00 | 0.00 | 65 | 1017.7 |
| 20260902144023 | 30 | 180 | 1.6 | 6.4 | 0.00 | 0.00 | 0.00 | 66 | 1017.6 |
| 20260902143042 | 30 | 183 | 3.2 | 8.0 | 0.00 | 0.00 | 0.00 | 68 | 1017.6 |
| 20260902142027 | 29 | 198 | 1.6 | 4.8 | 0.00 | 0.00 | 0.00 | 70 | 1017.7 |
| 20260902141023 | 28 | 210 | 1.6 | 6.4 | 0.00 | 0.00 | 0.00 | 72 | 1017.8 |
| 20260902140022 | 28 | 234 | 0.0 | 4.8 | 0.00 | 0.00 | 0.00 | 75 | 1017.8 |
| 20260902135017 | 28 | 215 | 0.0 | 4.8 | 0.00 | 0.00 | 0.00 | 76 | 1017.9 |
| 20260902134017 | 27 | 190 | 0.0 | 4.8 | 0.00 | 0.00 | 0.00 | 78 | 1017.8 |
| 20260902133022 | 27 | 190 | 0.0 | 4.8 | 0.00 | 0.00 | 0.00 | 79 | 1017.8 |
| 20260902132022 | 26 | 189 | 0.0 | 3.2 | 0.00 | 0.00 | 0.00 | 80 | 1017.9 |
| 20260902131022 | 26 | 189 | 0.0 | 6.4 | 0.00 | 0.00 | 0.00 | 83 | 1017.7 |
| 20260902130027 | 25 | 0.0 | 0.0 | 0.00 | 0.00 | 0.00 | 86 | 1017.7 | |
| 20260902125022 | 24 | 0.0 | 0.0 | 0.00 | 0.00 | 0.00 | 88 | 1017.6 | |
| 20260902124017 | 23 | 0.0 | 0.0 | 0.00 | 0.00 | 0.00 | 90 | 1017.6 | |
| 20260902123020 | 23 | 0.0 | 0.0 | 0.00 | 0.00 | 0.00 | 92 | 1017.6 | |
| 20260902122022 | 22 | 0.0 | 0.0 | 0.00 | 0.00 | 0.00 | 92 | 1017.7 | |
| 20260902121042 | 22 | 0.0 | 0.0 | 0.00 | 0.00 | 0.00 | 93 | 1017.5 | |
| 20260902120022 | 22 | 0.0 | 0.0 | 0.00 | 0.00 | 0.00 | 93 | 1017.3 | |
| 20260902115022 | 22 | 0.0 | 0.0 | 0.00 | 0.00 | 0.00 | 93 | 1017.2 | |
| 20260902114027 | 22 | 0.0 | 0.0 | 0.00 | 0.00 | 0.00 | 93 | 1017.1 | |
| 20260902113017 | 22 | 0.0 | 0.0 | 0.00 | 0.00 | 0.00 | 93 | 1017.0 | |
| 20260902112027 | 22 | 0.0 | 0.0 | 0.00 | 0.00 | 0.00 | 93 | 1017.0 | |
| 20260902111022 | 22 | 0.0 | 0.0 | 0.00 | 0.00 | 0.00 | 93 | 1016.8 | |
| 20260902110023 | 22 | 0.0 | 0.0 | 0.00 | 0.00 | 0.00 | 93 | 1016.8 | |
| 20260902105022 | 22 | 0.0 | 0.0 | 0.00 | 0.00 | 0.00 | 93 | 1016.6 | |
| 20260902104027 | 22 | 0.0 | 0.0 | 0.00 | 0.00 | 0.00 | 93 | 1016.6 | |
| 20260902103037 | 22 | 0.0 | 0.0 | 0.00 | 0.00 | 0.00 | 93 | 1016.5 | |
| 20260902102017 | 22 | 0.0 | 0.0 | 0.00 | 0.00 | 0.00 | 93 | 1016.5 | |
| 20260902101022 | 22 | 0.0 | 0.0 | 0.00 | 0.00 | 0.00 | 93 | 1016.4 | |
| 20260902100022 | 22 | 0.0 | 0.0 | 0.00 | 0.00 | 0.00 | 92 | 1016.5 | |
| 20260902095022 | 22 | 0.0 | 0.0 | 0.00 | 0.00 | 0.00 | 90 | 1016.5 | |
| 20260902094020 | 23 | 0.0 | 0.0 | 0.00 | 0.00 | 0.00 | 92 | 1016.5 | |
| 20260902093023 | 22 | 0.0 | 0.0 | 0.00 | 0.00 | 0.00 | 92 | 1016.5 | |
| 20260902092017 | 22 | 0.0 | 0.0 | 0.00 | 0.00 | 0.00 | 92 | 1016.5 | |
| 20260902091022 | 22 | 0.0 | 0.0 | 0.00 | 0.00 | 0.00 | 92 | 1016.4 | |
| 20260902090042 | 22 | 0.0 | 0.0 | 0.00 | 0.00 | 0.00 | 92 | 1016.3 | |
| 20260902085022 | 23 | 0.0 | 0.0 | 0.00 | 0.00 | 0.00 | 92 | 1016.3 | |
| 20260902084023 | 22 | 0.0 | 0.0 | 0.00 | 0.00 | 0.00 | 92 | 1016.3 | |
| 20260902083022 | 22 | 0.0 | 0.0 | 0.00 | 0.00 | 0.00 | 92 | 1016.3 | |
| 20260902082018 | 22 | 0.0 | 0.0 | 0.00 | 0.00 | 0.00 | 91 | 1016.3 | |
| 20260902081037 | 22 | 0.0 | 0.0 | 0.00 | 0.00 | 0.00 | 91 | 1016.3 | |
| 20260902080022 | 23 | 0.0 | 0.0 | 0.00 | 0.00 | 0.00 | 90 | 1016.3 | |
| 20260902075022 | 23 | 0.0 | 0.0 | 0.00 | 0.00 | 0.00 | 91 | 1016.3 | |
| 20260902074027 | 23 | 0.0 | 0.0 | 0.00 | 0.00 | 0.00 | 91 | 1016.3 | |
| 20260902073042 | 22 | 0.0 | 0.0 | 0.00 | 0.00 | 0.00 | 90 | 1016.3 | |
| 20260902072027 | 22 | 0.0 | 0.0 | 0.00 | 0.00 | 0.00 | 90 | 1016.3 | |
| 20260902071037 | 23 | 0.0 | 0.0 | 0.00 | 0.00 | 0.00 | 90 | 1016.3 | |
| 20260902070022 | 23 | 0.0 | 0.0 | 0.00 | 0.00 | 0.00 | 91 | 1016.4 | |
| 20260902065022 | 23 | 0.0 | 0.0 | 0.00 | 0.00 | 0.00 | 89 | 1016.4 | |
| 20260902064042 | 23 | 0.0 | 0.0 | 0.00 | 0.00 | 0.00 | 87 | 1016.4 | |
| 20260902063027 | 24 | 0.0 | 0.0 | 0.00 | 0.00 | 0.00 | 90 | 1016.4 | |
| 20260902062022 | 23 | 0.0 | 0.0 | 0.00 | 0.00 | 0.00 | 91 | 1016.4 | |
| 20260902061023 | 23 | 0.0 | 0.0 | 0.00 | 0.00 | 0.00 | 89 | 1016.3 | |
| 20260902060017 | 23 | 0.0 | 0.0 | 0.00 | 0.00 | 0.00 | 89 | 1016.3 | |
| 20260902055042 | 23 | 0.0 | 0.0 | 0.00 | 0.00 | 0.00 | 90 | 1016.3 | |
| 20260902054022 | 23 | 0.0 | 0.0 | 0.00 | 0.00 | 0.00 | 88 | 1016.3 | |
| 20260902053023 | 24 | 0.0 | 0.0 | 0.00 | 0.00 | 0.00 | 88 | 1016.2 | |
| 20260902052022 | 24 | 0.0 | 0.0 | 0.00 | 0.00 | 0.00 | 87 | 1016.2 | |
| 20260902051022 | 24 | 0.0 | 0.0 | 0.00 | 0.00 | 0.00 | 87 | 1016.1 | |
| 20260902050017 | 25 | 0.0 | 0.0 | 0.00 | 0.00 | 0.00 | 87 | 1016.2 | |
| 20260902045021 | 25 | 0.0 | 0.0 | 0.00 | 0.00 | 0.00 | 88 | 1016.1 | |
| 20260902044021 | 25 | 0.0 | 0.0 | 0.00 | 0.00 | 0.00 | 88 | 1016.1 | |
| 20260902043020 | 25 | 0.0 | 0.0 | 0.00 | 0.00 | 0.00 | 87 | 1016.0 | |
| 20260902042015 | 25 | 0.0 | 0.0 | 0.00 | 0.00 | 0.00 | 87 | 1016.0 | |
| 20260902041021 | 25 | 0.0 | 0.0 | 0.00 | 0.00 | 0.00 | 85 | 1016.0 | |
| 20260902040040 | 25 | 0.0 | 0.0 | 0.00 | 0.00 | 0.00 | 86 | 1015.9 | |
| 20260902035040 | 25 | 0.0 | 0.0 | 0.00 | 0.00 | 0.00 | 86 | 1015.9 | |
| 20260902034021 | 25 | 0.0 | 0.0 | 0.00 | 0.00 | 0.00 | 84 | 1016.0 | |
| 20260902033030 | 25 | 0.0 | 0.0 | 0.00 | 0.00 | 0.00 | 84 | 1016.0 | |
| 20260902032015 | 25 | 0.0 | 0.0 | 0.00 | 0.00 | 0.00 | 85 | 1016.1 | |
| 20260902031016 | 26 | 0.0 | 0.0 | 0.00 | 0.00 | 0.00 | 84 | 1016.0 | |
| 20260902030020 | 26 | 0.0 | 0.0 | 0.00 | 0.00 | 0.00 | 83 | 1016.0 | |
| 20260902025021 | 26 | 0.0 | 0.0 | 0.00 | 0.00 | 0.00 | 83 | 1015.9 | |
| 20260902024021 | 26 | 0.0 | 0.0 | 0.00 | 0.00 | 0.00 | 82 | 1015.8 | |
| 20260902023020 | 26 | 0.0 | 0.0 | 0.00 | 0.00 | 0.00 | 82 | 1015.8 | |
| 20260902022021 | 26 | 0.0 | 0.0 | 0.00 | 0.00 | 0.00 | 80 | 1015.8 | |
| 20260902021015 | 27 | 0.0 | 0.0 | 0.00 | 0.00 | 0.00 | 79 | 1015.7 | |
| 20260902020020 | 27 | 0.0 | 0.0 | 0.00 | 0.00 | 0.00 | 79 | 1015.6 | |
| 20260902015022 | 26 | 0.0 | 0.0 | 0.00 | 0.00 | 0.00 | 78 | 1015.4 | |
| 20260902014021 | 27 | 0.0 | 0.0 | 0.00 | 0.00 | 0.00 | 77 | 1015.3 | |
| 20260902013020 | 27 | 0.0 | 0.0 | 0.00 | 0.00 | 0.00 | 77 | 1015.3 | |
| 20260902012101 | 27 | 0.0 | 0.0 | 0.00 | 0.00 | 0.00 | 75 | 1015.2 | |
| 20260902011016 | 28 | 0.0 | 0.0 | 0.00 | 0.00 | 0.00 | 74 | 1015.1 | |
| 20260902010015 | 28 | 0.0 | 0.0 | 0.00 | 0.00 | 0.00 | 71 | 1015.1 | |
| 20260902005020 | 28 | 0.0 | 0.0 | 0.00 | 0.00 | 0.00 | 70 | 1015.0 | |
| 20260902004021 | 28 | 0.0 | 0.0 | 0.00 | 0.00 | 0.00 | 71 | 1015.1 | |
| 20260902003021 | 29 | 0.0 | 0.0 | 0.00 | 0.00 | 0.00 | 71 | 1015.1 | |
| 20260902002020 | 29 | 0.0 | 0.0 | 0.00 | 0.00 | 0.00 | 70 | 1015.1 | |
| 20260902001042 | 30 | 0.0 | 0.0 | 0.00 | 0.00 | 0.00 | 68 | 1015.1 | |
| 20260902000016 | 31 | 0.0 | 0.0 | 0.00 | 0.00 | 0.00 | 65 | 1015.1 | |
| 20260901235020 | 32 | 0.0 | 1.6 | 0.00 | 0.00 | 0.00 | 60 | 1015.2 | |
| 20260901234021 | 32 | 0.0 | 0.0 | 0.00 | 0.00 | 0.00 | 59 | 1015.2 | |
| 20260901233020 | 33 | 0.0 | 3.2 | 0.00 | 0.00 | 0.00 | 55 | 1015.2 | |
| 20260901232021 | 33 | 189 | 0.0 | 3.2 | 0.00 | 0.00 | 0.00 | 51 | 1015.3 |
| 20260901231101 | 34 | 189 | 0.0 | 3.2 | 0.00 | 0.00 | 0.00 | 48 | 1015.2 |
| 20260901230015 | 34 | 186 | 0.0 | 8.0 | 0.00 | 0.00 | 0.00 | 48 | 1015.3 |
| 20260901225016 | 35 | 199 | 0.0 | 9.7 | 0.00 | 0.00 | 0.00 | 47 | 1015.3 |
| 20260901224020 | 35 | 178 | 1.6 | 11.3 | 0.00 | 0.00 | 0.00 | 47 | 1015.3 |
| 20260901223021 | 35 | 189 | 0.0 | 3.2 | 0.00 | 0.00 | 0.00 | 48 | 1015.2 |
| 20260901222021 | 35 | 202 | 0.0 | 9.7 | 0.00 | 0.00 | 0.00 | 47 | 1015.2 |
| 20260901221020 | 35 | 155 | 0.0 | 12.9 | 0.00 | 0.00 | 0.00 | 47 | 1015.1 |
| 20260901220021 | 35 | 173 | 0.0 | 4.8 | 0.00 | 0.00 | 0.00 | 47 | 1015.0 |
| 20260901215015 | 35 | 172 | 0.0 | 9.7 | 0.00 | 0.00 | 0.00 | 44 | 1015.1 |
| 20260901214020 | 35 | 0.0 | 3.2 | 0.00 | 0.00 | 0.00 | 46 | 1015.1 | |
| 20260901213021 | 35 | 163 | 0.0 | 3.2 | 0.00 | 0.00 | 0.00 | 47 | 1015.1 |
| 20260901212020 | 35 | 187 | 0.0 | 8.0 | 0.00 | 0.00 | 0.00 | 46 | 1015.2 |
| 20260901211020 | 36 | 181 | 0.0 | 6.4 | 0.00 | 0.00 | 0.00 | 44 | 1015.3 |
| 20260901210020 | 35 | 180 | 0.0 | 6.4 | 0.00 | 0.00 | 0.00 | 45 | 1015.3 |
| 20260901205020 | 35 | 177 | 0.0 | 6.4 | 0.00 | 0.00 | 0.00 | 46 | 1015.4 |
| 20260901204015 | 36 | 153 | 0.0 | 4.8 | 0.00 | 0.00 | 0.00 | 46 | 1015.6 |
| 20260901203020 | 36 | 182 | 1.6 | 8.0 | 0.00 | 0.00 | 0.00 | 47 | 1015.6 |
| 20260901202020 | 35 | 199 | 1.6 | 9.7 | 0.00 | 0.00 | 0.00 | 45 | 1015.7 |
| 20260901201020 | 36 | 181 | 0.0 | 4.8 | 0.00 | 0.00 | 0.00 | 44 | 1015.8 |
| 20260901200020 | 35 | 166 | 1.6 | 9.7 | 0.00 | 0.00 | 0.00 | 45 | 1015.9 |
| 20260901195020 | 35 | 192 | 1.6 | 8.0 | 0.00 | 0.00 | 0.00 | 47 | 1015.9 |
| 20260901194016 | 35 | 194 | 0.0 | 3.2 | 0.00 | 0.00 | 0.00 | 46 | 1016.1 |
| 20260901193016 | 35 | 157 | 0.0 | 8.0 | 0.00 | 0.00 | 0.00 | 43 | 1016.2 |
| 20260901192020 | 35 | 207 | 1.6 | 8.0 | 0.00 | 0.00 | 0.00 | 46 | 1016.3 |
| 20260901191020 | 35 | 272 | 3.2 | 11.3 | 0.00 | 0.00 | 0.00 | 47 | 1016.4 |
| 20260901190020 | 36 | 207 | 1.6 | 9.7 | 0.00 | 0.00 | 0.00 | 48 | 1016.5 |
| 20260901185020 | 35 | 190 | 0.0 | 11.3 | 0.00 | 0.00 | 0.00 | 47 | 1016.6 |
| 20260901184020 | 35 | 206 | 1.6 | 9.7 | 0.00 | 0.00 | 0.00 | 47 | 1016.7 |
| 20260901183015 | 35 | 198 | 3.2 | 11.3 | 0.00 | 0.00 | 0.00 | 50 | 1016.8 |
| 20260901182020 | 35 | 207 | 3.2 | 6.4 | 0.00 | 0.00 | 0.00 | 51 | 1016.8 |
| 20260901181020 | 35 | 211 | 1.6 | 8.0 | 0.00 | 0.00 | 0.00 | 50 | 1017.0 |
| 20260901180020 | 34 | 184 | 0.0 | 9.7 | 0.00 | 0.00 | 0.00 | 52 | 1017.1 |
| 20260901175020 | 35 | 229 | 1.6 | 11.3 | 0.00 | 0.00 | 0.00 | 52 | 1017.2 |
| 20260901174020 | 34 | 270 | 4.8 | 14.5 | 0.00 | 0.00 | 0.00 | 53 | 1017.4 |
| 20260901173020 | 34 | 277 | 4.8 | 12.9 | 0.00 | 0.00 | 0.00 | 53 | 1017.5 |
| 20260901172015 | 34 | 276 | 3.2 | 14.5 | 0.00 | 0.00 | 0.00 | 51 | 1017.6 |
| 20260901171021 | 34 | 274 | 4.8 | 14.5 | 0.00 | 0.00 | 0.00 | 54 | 1017.7 |
| 20260901170020 | 34 | 260 | 4.8 | 11.3 | 0.00 | 0.00 | 0.00 | 53 | 1017.8 |
| 20260901165020 | 33 | 214 | 4.8 | 12.9 | 0.00 | 0.00 | 0.00 | 55 | 1017.9 |
| 20260901164022 | 33 | 217 | 1.6 | 11.3 | 0.00 | 0.00 | 0.00 | 55 | 1018.0 |
| 20260901163020 | 33 | 244 | 3.2 | 9.7 | 0.00 | 0.00 | 0.00 | 56 | 1018.2 |